Location: Bun Machan
(52.1403°N, 7.3744°W)
Time: 08:43:20
(UTC+00:00)

Cosmos 1802 Rocket - Pass Details

Date: 14 July 2020
Orbit: 954 x 1011 km, 82.9° (Epoch: 05 August)

Event Time Altitude Azimuth Distance (km) Brightness Sun altitude
Exits shadow 02:47:51 14° 208° (SSW) 2,510 5.5 -10.8°
Maximum altitude 02:53:24 58° 285° (WNW) 1,168 4.3 -10.3°
Drops below altitude 10° 02:59:46 10° 5° (N) 2,805 7.5 -9.8°
Sets 03:02:23 0° 9° (N) 3,760 8.4 -9.6°
